RH
96 97 97 97 95 92 92 93 75 73 73 78 73 72 72 74 71 70 68 70 71 69 68 73 70 71 72 77 77 70 68 65 64 71 70 70 74 72 74 73 74 68 68
95 95 97 95 93 95 94 92 93 76 73 75 73 72 71 72 72 72 72 72 73 73 74 74 72 74 76 76 77 75 72 70 70 70 74 76 72 75 72 75 75 72 70
95 95 96 96 96 96 96 95 93 94 78 76 74 74 74 74 73 72 70 71 74 71 72 73 71 75 77 81 82 79 78 78 77 76 79 81 80 78 78 76 74 73 73
92 95 95 96 97 99 96 96 96 96 93 81 76 73 75 72 73 73 71 72 75 72 74 74 69 75 72 79 82 82 82 83 82 81 82 83 81 82 78 76 78 77 73
92 93 95 95 96 96 99 95 96 97 96 93 91 77 76 76 74 75 74 75 78 75 79 78 75 79 83 80 79 82 85 85 85 86 86 87 88 87 84 79 78 77 75
92 93 92 92 94 96 96 99 94 96 96 97 97 95 82 79 84 87 78 78 79 78 81 80 77 93 90 91 89 88 81 84 86 87 86 88 85 82 85 83 82 84 85
92 93 92 91 91 94 95 96 97 97 95 96 97 96 96 91 98 91 89 76 79 79 77 80 83 84 90 84 93 93 93 90 85 84 87 86 82 79 80 92 89 84 81
91 86 90 92 92 92 94 96 97 99 97 97 96 96 96 94 95 98 94 79 80 78 77 77 81 82 88 84 86 87 85 86 85 85 79 77 74 73 75 78 82 83 85
81 88 83 91 94 93 94 96 96 97 97 97 97 96 95 96 94 95 98 92 86 83 79 77 80 80 90 93 87 89 87 88 93 92 92 91 91 92 85 91 96 93 92
66 73 76 79 94 95 96 96 96 96 96 93 94 97 97 97 91 92 95 96 96 93 85 82 91 81 92 95 84 88 89 88 94 98 99 98 96 95 96 85 89 94 97
54 56 63 70 87 95 96 96 96 97 95 95 96 97 95 96 95 91 93 94 98 95 93 98 94 96 94 97 90 83 84 82 95 93 96 97 98 97 97 93 88 84 98
55 56 57 60 66 82 95 95 96 96 96 97 95 93 94 96 92 92 92 93 94 95 97 98 98 99 100 99 97 84 90 92 93 95 98 98 98 98 98 94 93 91 81
58 56 59 58 52 62 86 94 92 94 93 95 94 92 95 93 90 89 91 93 94 97 97 98 98 99 99 99 99 100 100 98 96 97 98 98 97 98 98 99 99 98 97
66 58 59 57 61 55 54 77 89 88 89 90 92 94 94 94 90 92 96 97 96 95 95 96 96 96 96 97 96 97 98 98 99 99 99 100 99 100 100 100 100 100 100
69 60 66 53 65 62 49 52 76 88 88 91 93 92 95 92 96 94 96 98 99 98 96 93 93 94 96 96 96 96 96 95 98 98 99 100 100 100 100 100 100 100 100
77 65 71 61 68 61 60 51 52 62 63 70 73 81 80 82 89 91 94 97 98 100 93 95 96 96 96 97 98 99 97 96 98 97 97 98 99 99 100 100 100 100 100
83 76 81 66 67 66 72 60 57 51 54 58 62 68 71 67 68 75 86 93 94 93 94 96 96 96 96 96 96 95 96 96 97 96 97 98 99 100 99 99 100 100 100
91 82 80 76 74 79 76 71 61 59 58 54 53 64 68 65 66 68 71 80 83 88 91 92 94 94 95 95 95 96 96 96 96 96 96 96 97 98 98 98 99 99 99
91 89 88 85 86 80 77 78 70 68 66 65 54 58 70 66 65 68 70 65 80 86 89 89 90 91 92 93 93 93 94 94 95 96 96 96 97 98 98 98 98 97 96
95 86 76 90 90 86 83 82 84 83 82 74 70 64 70 60 70 67 64 68 70 72 84 88 89 89 90 90 91 92 93 91 92 92 94 94 94 95 95 95 95 95 94
92 92 83 92 93 89 86 85 83 85 88 85 80 74 64 65 75 77 73 72 73 73 72 73 87 89 89 88 89 90 89 90 90 92 93 92 92 92 90 92 93 94 94
92 92 91 92 90 92 91 89 90 89 89 90 85 81 70 68 70 76 79 78 78 78 74 73 76 76 78 85 87 88 90 92 91 92 92 90 90 90 90 91 91 91 90
91 92 93 93 92 91 92 91 93 92 91 89 88 87 84 82 78 76 77 82 83 84 82 79 79 81 76 77 82 88 89 87 85 84 87 89 89 88 88 88 86 88 86
93 92 93 93 92 93 92 91 91 88 85 89 88 85 88 87 82 82 79 83 83 83 88 87 85 86 85 80 77 81 84 81 81 85 85 92 92 88 87 88 85 86 88
92 93 95 96 94 92 91 89 92 92 90 90 90 89 89 88 89 87 85 84 88 86 84 89 89 89 92 90 86 79 80 69 80 85 90 93 93 93 93 91 90 89 91
91 92 92 93 94 92 92 92 92 92 93 90 90 92 92 92 91 90 90 90 90 89 88 87 89 93 94 93 90 88 75 66 67 62 73 91 94 93 92 94 94 93 92
Wind_Speed
14 12 13 10 9 7 8 8 14 17 17 18 19 19 18 17 16 15 15 14 14 13 12 12 13 10 7 5 5 6 5 3 3 3 2 4 6 7 5 5 5 4 3
15 14 10 12 11 9 8 10 11 13 17 17 18 18 18 17 17 17 16 15 16 15 15 13 14 8 10 8 6 9 7 5 3 7 5 4 4 5 5 6 5 4 4
16 13 15 14 14 12 10 10 10 9 13 15 16 18 18 18 18 18 18 17 16 16 15 15 14 13 12 8 8 7 6 4 3 3 4 2 2 3 3 3 4 5 4
12 14 15 13 12 10 11 11 8 10 6 12 15 16 17 18 19 19 18 16 16 16 15 16 15 15 15 13 10 10 8 7 5 3 4 3 2 3 2 3 4 4 5
16 16 15 14 14 12 10 9 10 7 7 4 5 16 16 16 14 18 18 17 17 17 15 15 15 16 17 15 10 11 10 8 6 7 4 3 4 4 6 4 5 3 4
15 14 13 13 11 10 11 9 9 11 8 7 2 3 16 12 18 21 21 18 18 18 16 15 15 15 16 19 18 16 16 13 11 7 7 7 8 5 5 5 4 4 4
14 14 14 13 13 13 13 12 11 9 8 8 6 7 9 7 11 20 23 17 17 18 18 15 13 11 16 15 17 18 17 18 15 14 13 11 10 10 8 6 6 5 4
13 14 15 16 15 15 13 13 13 10 9 8 11 8 10 10 17 10 17 19 16 18 19 18 17 17 16 17 15 15 15 14 14 9 12 11 11 9 10 10 9 6 2
13 14 15 15 14 14 13 13 10 9 10 9 9 10 10 12 18 15 4 17 16 17 16 18 18 18 18 22 17 16 16 13 11 13 10 10 14 12 10 7 5 5 4
12 12 13 13 12 13 11 10 9 7 8 8 10 10 14 10 20 20 10 6 13 12 15 17 18 20 19 25 20 16 16 15 12 9 5 5 9 11 16 11 8 8 3
12 11 11 11 11 12 11 9 9 8 9 10 9 9 11 14 13 23 20 6 5 12 12 8 7 13 17 25 27 17 19 16 16 14 11 8 7 8 8 7 8 7 5
10 10 11 11 9 10 12 10 9 9 8 8 8 8 8 10 21 22 22 18 12 6 5 4 1 7 17 23 23 24 19 18 12 12 12 10 9 7 7 8 9 7 5
9 10 10 11 10 10 10 11 8 7 7 7 6 7 8 9 10 21 21 20 16 8 7 9 10 8 12 10 12 13 13 11 11 13 11 8 9 8 7 5 3 4 4
8 8 8 9 10 10 8 8 8 9 7 7 8 7 7 8 9 10 9 9 14 8 8 7 10 11 14 9 11 10 7 2 8 3 4 5 3 4 3 3 3 3 3
6 6 7 7 8 8 8 7 7 8 11 7 7 7 7 8 10 15 14 9 7 9 5 6 7 6 8 8 8 8 9 9 7 6 4 3 3 2 1 1 2 2 3
5 5 5 4 5 6 6 6 11 13 15 17 17 13 7 14 18 17 16 20 17 14 6 7 7 7 8 7 7 8 9 10 8 8 7 7 6 4 4 3 3 3 3
4 3 3 4 4 4 5 6 7 8 11 15 15 15 15 16 18 17 14 14 19 13 8 7 7 7 7 8 7 8 8 8 8 8 8 7 5 5 5 4 5 4 3
4 7 3 2 3 3 4 4 5 6 7 7 11 12 14 15 16 18 17 10 9 11 8 8 7 7 7 7 7 7 7 7 8 7 7 6 6 5 4 4 5 4 3
3 2 2 2 3 3 4 4 3 4 5 5 6 8 12 13 13 15 15 8 7 8 7 7 7 6 7 7 7 7 7 7 6 6 6 6 5 3 4 4 4 6 4
3 6 4 2 2 2 2 3 3 2 2 4 4 5 5 7 6 7 7 7 7 6 6 6 6 6 6 6 6 6 5 6 6 6 5 5 4 4 4 4 3 4 4
2 2 5 2 1 2 3 3 3 2 3 2 3 5 8 4 4 5 5 5 5 5 6 5 5 5 5 5 5 5 5 5 5 5 4 4 4 4 4 3 3 3 2
4 3 3 3 2 2 3 3 3 3 2 3 2 3 7 2 2 2 3 3 4 4 4 4 4 4 5 5 4 4 4 4 4 4 4 4 3 3 3 3 3 2 2
5 4 4 3 4 6 4 3 4 3 4 4 3 3 2 1 2 1 1 0 1 2 2 3 3 3 3 4 4 4 3 3 3 3 3 3 3 3 2 3 3 2 2
5 5 5 5 4 4 5 4 4 7 5 5 4 4 4 2 3 4 2 2 1 0 0 1 1 1 2 2 2 2 2 2 1 1 1 1 2 3 2 2 3 3 4
4 4 5 5 5 4 4 4 4 4 4 4 4 4 4 3 4 4 3 3 3 2 2 2 1 1 2 1 1 3 4 6 5 6 3 4 4 4 3 4 4 4 4
6 6 5 4 4 5 5 5 5 5 5 5 5 4 4 4 4 4 3 4 4 4 4 3 4 5 4 3 4 5 7 7 5 6 3 3 3 3 3 5 6 5 5
Wind_Direction
346 350 5 349 13 29 34 343 191 179 180 180 184 185 182 180 182 187 191 188 195 196 199 201 210 203 205 202 201 196 186 170 165 167 179 170 174 185 180 194 183 187 188
349 354 351 3 13 21 26 10 337 201 185 184 187 188 188 188 185 188 192 191 196 197 200 201 209 197 201 198 196 197 198 185 154 172 174 174 178 196 191 190 197 204 206
351 348 8 360 360 11 12 12 358 317 187 190 191 190 187 187 188 194 195 196 197 201 199 203 205 197 202 195 195 194 193 177 181 149 158 152 139 162 172 200 205 213 219
324 1 356 358 11 353 4 355 19 336 312 191 198 197 194 190 190 194 197 196 198 202 199 203 202 199 205 198 193 196 190 186 180 168 166 159 168 158 177 185 206 215 223
355 6 360 356 354 348 16 349 26 346 335 306 224 200 199 197 196 194 194 195 196 202 201 204 205 203 201 193 191 196 185 190 185 191 173 170 174 171 196 177 214 193 219
360 359 358 359 353 0 4 357 18 9 335 327 315 229 203 200 191 193 195 194 197 200 199 202 205 195 193 189 194 188 192 189 195 189 196 205 198 193 167 184 186 185 219
355 357 356 358 4 357 10 355 14 13 9 0 13 43 27 213 342 200 196 200 198 200 204 202 204 201 197 198 200 188 193 198 195 186 193 205 200 196 177 166 191 193 201
354 356 358 358 3 4 6 4 8 4 3 25 26 29 60 32 16 0 205 207 207 207 205 203 202 203 198 197 198 201 206 203 201 193 200 201 208 193 192 188 194 191 117
3 355 358 357 356 2 4 1 360 7 11 27 27 27 33 36 15 14 0 212 211 210 210 207 203 206 195 192 196 202 209 211 203 196 196 198 185 166 166 138 158 166 203
356 353 352 359 353 358 355 359 355 8 18 18 31 34 22 23 21 24 21 234 219 215 207 208 205 204 189 189 199 202 210 209 194 186 180 176 188 169 170 186 171 183 158
350 353 357 356 356 354 352 359 7 10 22 26 23 12 21 16 10 28 35 26 306 231 214 192 202 201 193 191 198 208 209 203 195 190 193 190 198 163 179 195 182 188 164
346 358 3 356 4 356 357 0 12 22 24 27 25 21 12 17 18 22 29 44 31 57 63 26 18 232 203 195 198 216 215 191 187 194 190 179 185 182 180 193 188 196 213
351 359 2 359 9 5 3 2 9 22 27 22 28 27 20 13 17 12 16 21 33 37 40 45 17 19 140 120 184 166 157 207 202 189 175 187 184 180 170 184 163 155 142
341 356 3 7 10 9 9 8 9 16 34 28 25 25 22 18 14 3 6 358 2 15 21 30 36 50 67 60 80 73 54 183 141 158 122 107 98 106 135 141 136 128 135
331 352 5 13 1 5 8 7 14 13 22 27 35 20 14 25 18 9 11 6 359 1 16 41 40 27 46 45 51 55 66 52 54 62 70 87 89 95 83 319 127 113 127
326 349 349 17 3 6 3 3 15 21 25 26 28 26 20 24 16 16 19 21 21 28 38 47 43 30 42 28 47 53 53 60 54 62 60 55 66 69 67 14 32 88 101
293 306 322 5 6 2 1 11 4 1 19 24 20 22 17 25 15 18 21 29 34 38 49 43 48 42 40 44 45 49 54 42 55 60 52 55 44 41 85 72 62 58 63
279 307 345 333 347 345 355 2 13 9 5 0 3 18 12 22 17 17 21 35 39 38 38 43 47 42 47 50 49 47 43 42 48 56 61 51 42 37 34 62 71 85 82
229 256 266 300 309 322 346 347 7 19 10 355 353 8 10 15 24 25 28 36 38 40 41 39 36 40 49 54 51 53 54 52 54 54 58 58 50 45 53 50 54 60 82
234 260 265 214 277 320 332 330 338 348 358 0 352 345 348 19 26 28 30 32 39 40 36 39 35 35 39 50 54 52 53 57 53 55 53 52 47 55 63 48 56 77 65
212 237 257 174 236 288 296 297 304 308 317 323 327 322 7 35 27 35 33 38 37 38 33 39 41 42 35 38 52 61 63 68 62 59 60 56 47 54 44 38 51 47 38
204 214 216 223 227 240 261 273 284 286 289 290 294 311 345 24 15 32 47 45 41 42 33 37 44 38 36 42 42 49 62 66 60 52 50 50 46 56 49 37 31 44 37
202 207 213 225 232 253 268 267 267 268 274 277 278 281 281 261 280 295 325 83 60 60 42 48 54 57 43 35 28 38 46 51 41 24 36 38 37 30 32 22 360 350 354
200 207 208 214 212 223 239 252 254 263 252 252 262 260 257 239 242 252 251 239 231 182 105 92 71 84 78 40 29 25 27 343 320 311 306 305 321 328 343 343 320 318 310
202 215 219 222 223 234 245 238 231 238 248 252 253 251 255 253 242 241 237 226 226 226 226 220 224 213 211 230 277 305 300 290 256 229 224 241 264 283 292 299 292 293 285
217 217 217 215 218 223 227 234 236 232 234 237 237 242 245 244 244 239 236 226 222 225 230 229 228 235 238 242 252 257 277 291 305 305 290 234 238 256 273 274 271 269 274